Spokane Fairchild, WA

7:12 PM PDT on July 27, 2017 (GMT -0700)
Fairchild Air Force Base

Weather History for KSKA - October, 2011

Change the Weather History Date:

Thursday, October 13, 2011

  Actual Average Record
Temperature  
Mean Temperature 45 °F -  
Max Temperature 58 °F 57 °F 69 °F (2004)
Min Temperature 35 °F 36 °F 30 °F (2002)
Degree Days  
Heating Degree Days 20    
Moisture  
Dew Point 34 °F    
Average Humidity 68    
Maximum Humidity 93    
Minimum Humidity 36    
Precipitation  
Precipitation 0.00 in - - ()
Sea Level Pressure  
Sea Level Pressure 30.19 in    
Wind  
Wind Speed 2 mph (NW)    
Max Wind Speed 6 mph    
Max Gust Speed -    
Visibility 10 miles    
Events Rain    
Averages and records for this station are not official NWS values.
T = Trace of Precipitation, MM = Missing Value Source: NWS Daily Summary

Daily Weather History Graph

Daily Weather History Graph

Search for Another Location

Airport or City:

Trip Planner

Search our weather history database for the weather conditions in past years. The results will help you decide how hot, cold, wet, or windy it might be!

Date:

Astronomy

Oct. 13, 2011 Rise Set
Actual Time 7:06 AM PDT 6:06 PM PDT
Civil Twilight 6:35 AM PDT 6:37 PM PDT
Nautical Twilight 5:59 AM PDT 7:13 PM PDT
Astronomical Twilight 5:23 AM PDT 7:48 PM PDT
Moon 6:32 PM PDT (10/13) 8:54 AM PDT (10/13)
Length of Visible Light 12h 02m
Length of Day
11h 00m
Full, 97% of the Moon is Illuminated
Oct 13
Full
Oct 19
Last Quarter
Oct 26
New
Nov 2
First Quarter
Nov 10
Full

Hourly Weather History & Observations

Time (PDT) Temp. Windchill Dew Point Humidity Pressure Visibility Wind Dir Wind Speed Gust Speed Precip Events Conditions
12:55 AM 42.4 °F - 36.3 °F 79% 30.20 in 7.0 mi Calm Calm - N/A   Mostly Cloudy
1:55 AM 42.8 °F 40.1 °F 36.7 °F 79% 30.19 in 10.0 mi SSW 4.6 mph - N/A   Mostly Cloudy
2:55 AM 40.6 °F 38.6 °F 36.0 °F 83% 30.20 in 10.0 mi SSW 3.5 mph - N/A   Mostly Cloudy
3:55 AM 40.3 °F 36.3 °F 35.2 °F 82% 30.20 in 10.0 mi South 5.8 mph - N/A   Mostly Cloudy
4:55 AM 37.6 °F 35.1 °F 34.2 °F 87% 30.21 in 10.0 mi SW 3.5 mph - N/A   Scattered Clouds
5:55 AM 37.0 °F - 34.5 °F 91% 30.22 in 10.0 mi NNW 1.2 mph - N/A   Mostly Cloudy
6:55 AM 36.1 °F - 33.4 °F 90% 30.23 in 10.0 mi Calm Calm - N/A   Mostly Cloudy
7:20 AM 35.6 °F - 33.8 °F 93% 30.23 in 10.0 mi Calm Calm - N/A Rain Light Rain Showers
7:35 AM 35.6 °F - 33.8 °F 93% 30.23 in 10.0 mi Calm Calm - N/A   Partly Cloudy
7:55 AM 36.9 °F - 34.0 °F 89% 30.23 in 10.0 mi Calm Calm - N/A   Clear
8:55 AM 45.3 °F - 36.5 °F 71% 30.22 in 10.0 mi South 1.2 mph - N/A   Clear
9:55 AM 48.0 °F - 35.6 °F 62% 30.22 in 10.0 mi ENE 2.3 mph - N/A   Clear
10:55 AM 52.0 °F - 35.6 °F 54% 30.22 in 10.0 mi Calm Calm - N/A   Clear
11:55 AM 52.9 °F - 34.5 °F 50% 30.20 in 10.0 mi Variable 2.3 mph - N/A   Clear
12:55 PM 55.6 °F - 38.1 °F 52% 30.18 in 10.0 mi Variable 2.3 mph - N/A   Clear
1:55 PM 54.1 °F - 32.4 °F 44% 30.16 in 10.0 mi West 2.3 mph - N/A   Clear
2:55 PM 54.3 °F - 30.9 °F 41% 30.16 in 10.0 mi Variable 2.3 mph - N/A   Clear
3:55 PM 55.2 °F - 28.8 °F 36% 30.15 in 10.0 mi North 4.6 mph - N/A   Scattered Clouds
4:55 PM 53.1 °F - 30.9 °F 43% 30.15 in 10.0 mi NE 4.6 mph - N/A   Mostly Cloudy
5:55 PM 50.7 °F - 30.7 °F 46% 30.16 in 10.0 mi NE 2.3 mph - N/A   Clear
6:55 PM 46.6 °F - 34.2 °F 62% 30.18 in 10.0 mi NNW 1.2 mph - N/A   Mostly Cloudy
7:55 PM 46.4 °F - 32.7 °F 59% 30.18 in 10.0 mi Calm Calm - N/A   Mostly Cloudy
8:55 PM 43.7 °F 42.1 °F 32.7 °F 65% 30.16 in 10.0 mi SW 3.5 mph - N/A   Mostly Cloudy
9:55 PM 42.3 °F - 34.2 °F 73% 30.15 in 10.0 mi NW 2.3 mph - N/A   Mostly Cloudy
10:55 PM 43.2 °F - 34.9 °F 73% 30.13 in 10.0 mi NNW 2.3 mph - N/A   Mostly Cloudy
11:55 PM 43.3 °F - 34.2 °F 70% 30.12 in 10.0 mi East 1.2 mph - N/A   Mostly Cloudy